Content
SEND FEEDBACK

Daily
Averages
Monthly
Summary
United States of America

RAHWAY, NEW JERSEY


Home > North America > United States > New Jersey
Elevation: 20 feet     Latitude: 40 36N     Longitude: 074 16W

WEATHER
 
SELECT A DAY
Number of Records: 193,924;   Date Range: 1/1/95 - 12/18/14
 
SHARE

PRINT THIS DATA

[ ← Previous Day ]
WEATHER ALMANAC - MARCH 1, 2013
[ Next Day → ]
[ °C ]   °F
Weather ElementAverageHighLow
Temperature40.2 °F46 °F (1:51 pm)35.1 °F (3:51 am)
Dewpoint27.2 °F30 °F (1:51 am)24.1 °F (11:51 pm)
Humidity61 %79 % (1:51 am)46 % (1:51 pm)
Barometer29.70 in29.79 in (10:51 pm)29.62 in (1:51 am)
Wind Speed10.6 mph19.6 mph (6:51 pm)
Wind Gust26.5 mph (6:51 pm)
Weather ElementAverage
Visibility10 mi
Wind DirectionWNW (294.8 °)

Weather ElementTotal
Precipitation---
Heating Degree Days24.5 (Base 65)
Averaged from 23 records on March 1, 2013
WEATHER CONDITIONS BREAKOUT
WIND DIRECTION BREAKOUT
WEATHER BY HOUR - MARCH 1, 2013
[ °C ]   °F
Local TimeTemperatureDewpointHumidityBarometerVisibilityWind DirectionWind SpeedGust SpeedPrecipitationEventsConditions
1:51 AM36.0 °F30.0 °F79 %29.62 in10.0 miNNW (330°)3.5 mphMostly Cloudy
2:51 AM36.0 °F30.0 °F79 %29.62 in10.0 miWNW (290°)5.8 mphMostly Cloudy
3:51 AM35.1 °F28.9 °F78 %29.64 in10.0 miWNW (290°)8.1 mphMostly Cloudy
4:51 AM36.0 °F28.9 °F76 %29.65 in10.0 miCalmPartly Cloudy
5:51 AM35.1 °F28.9 °F78 %29.66 in10.0 miSW (220°)4.6 mphPartly Cloudy
6:51 AM36.0 °F28.9 °F76 %29.67 in10.0 miWest (260°)3.5 mphPartly Cloudy
7:51 AM39.9 °F28.9 °F65 %29.69 in10.0 miWNW (300°)6.9 mphPartly Cloudy
8:51 AM42.1 °F28.9 °F60 %29.70 in10.0 miNW (310°)8.1 mphMostly Cloudy
9:51 AM42.1 °F28.0 °F58 %29.70 in10.0 miNW (310°)10.4 mphMostly Cloudy
10:51 AM42.1 °F27.0 °F55 %29.71 in10.0 miNNW (330°)10.4 mph17.3 mphMostly Cloudy
11:51 AM44.1 °F27.0 °F51 %29.70 in10.0 miNNW (340°)12.7 mphOvercast
12:51 PM45.0 °F26.1 °F48 %29.69 in10.0 miNW (310°)11.5 mphMostly Cloudy
1:51 PM46.0 °F26.1 °F46 %29.69 in10.0 miNNW (330°)13.8 mph21.9 mphOvercast
2:51 PM44.1 °F25.0 °F47 %29.69 in10.0 miNW (310°)12.7 mph21.9 mphOvercast
3:51 PM44.1 °F25.0 °F47 %29.70 in10.0 miNW (310°)12.7 mph25.3 mph0.00 inOvercast
4:51 PM43.0 °F27.0 °F53 %29.71 in10.0 miNW (320°)15.0 mph23.0 mphOvercast
5:51 PM42.1 °F28.0 °F58 %29.73 in10.0 miNW (310°)12.7 mph24.2 mphOvercast
6:51 PM41.0 °F27.0 °F57 %29.75 in10.0 miNW (310°)19.6 mph26.5 mphOvercast
7:51 PM39.9 °F27.0 °F60 %29.76 in10.0 miNW (320°)16.1 mph24.2 mphOvercast
8:51 PM39.9 °F25.0 °F55 %29.77 in10.0 miNNW (330°)16.1 mph21.9 mphOvercast
9:51 PM39.0 °F25.0 °F57 %29.78 in10.0 miNNW (330°)12.7 mphOvercast
10:51 PM37.9 °F25.0 °F60 %29.79 in10.0 miNW (310°)11.5 mph23.0 mphOvercast
11:51 PM37.0 °F24.1 °F59 %29.78 in10.0 miNW (310°)15.0 mph23.0 mphOvercast
Hourly data recorded from KEWR, located miles away from Rahway, New Jersey







STORIES FROM OUR PARTNERS